DW4174 Weather Reports


time (UTC)temp
F
wind
direction
speed
knots
gust
knots
rain 1hr
in
rain 24hr
in
rain mn
in
humidity
%
barometer
mb
20260508080612 72 0 0.0 0.0 0.00 0.00 0.00 25 1009.6
20260508074812 74 108 1.7 2.6 0.00 0.00 0.00 23 1009.7
20260508073911 75 107 1.7 3.5 0.00 0.00 0.00 23 1009.7
20260508073013 75 99 1.7 3.5 0.00 0.00 0.00 23 1009.6
20260508072112 75 91 1.7 3.5 0.00 0.00 0.00 23 1009.4
20260508070311 76 100 1.7 3.5 0.00 0.00 0.00 22 1009.4
20260508065411 76 113 1.7 3.5 0.00 0.00 0.00 22 1009.3
20260508064511 75 246 0.0 3.5 0.00 0.00 0.00 23 1009.2
20260508063611 75 0 0.0 0.0 0.00 0.00 0.00 23 1009.3
20260508062711 75 261 0.0 1.7 0.00 0.00 0.00 23 1009.4
20260508061811 75 0 0.0 0.0 0.00 0.00 0.00 23 1009.4
20260508060911 75 0 0.0 0.0 0.00 0.00 0.00 23 1009.3
20260508060011 76 0 0.0 0.0 0.00 0.00 0.00 21 1009.3
20260508054212 76 0 0.0 0.0 0.00 0.00 0.00 21 1009.3
20260508053311 77 261 0.0 0.9 0.00 0.00 0.00 20 1009.3
20260508052411 78 261 0.9 1.7 0.00 0.00 0.00 19 1009.2
20260508051511 77 262 0.0 0.9 0.00 0.00 0.00 19 1009.0
20260508050611 77 0 0.0 0.0 0.00 0.00 0.00 19 1009.0
20260508045711 78 0 0.0 0.0 0.00 0.00 0.00 19 1009.0
20260508044811 78 0 0.0 0.0 0.00 0.00 0.00 18 1008.9
20260508043012 79 0 0.0 0.0 0.00 0.00 0.00 17 1008.8
20260508042111 80 0 0.0 0.0 0.00 0.00 0.00 16 1008.7
20260508041211 81 0 0.0 0.0 0.00 0.00 0.00 16 1008.6
20260508040311 82 262 0.9 1.7 0.00 0.00 0.00 15 1008.6
20260508035411 82 262 1.7 2.6 0.00 0.00 0.00 14 1008.5
20260508034511 83 265 1.7 3.5 0.00 0.00 0.00 14 1008.3
20260508033611 84 274 1.7 3.5 0.00 0.00 0.00 14 1008.2
20260508032711 84 279 1.7 2.6 0.00 0.00 0.00 13 1008.0
20260508030911 86 270 2.6 3.5 0.00 0.00 0.00 13 1007.9
20260508030011 87 255 3.5 5.2 0.00 0.00 0.00 12 1007.7
20260508025111 88 255 4.3 7.0 0.00 0.00 0.00 11 1007.7
20260508024211 88 256 4.3 7.8 0.00 0.00 0.00 11 1007.6
20260508022411 89 253 5.2 8.7 0.00 0.00 0.00 10 1007.3
20260508021511 90 257 6.1 10.4 0.00 0.00 0.00 10 1007.3
20260508020611 90 262 6.1 12.2 0.00 0.00 0.00 9 1007.2
20260508015711 91 280 6.1 10.4 0.00 0.00 0.00 9 1007.1
20260508014811 92 278 5.2 9.6 0.00 0.00 0.00 9 1007.1
20260508013911 92 267 4.3 8.7 0.00 0.00 0.00 8 1007.0
20260508013012 93 263 4.3 7.8 0.00 0.00 0.00 8 1006.9
20260508012111 93 263 6.1 10.4 0.00 0.00 0.00 8 1007.0
20260508011211 94 276 5.2 9.6 0.00 0.00 0.00 8 1006.8
20260508010312 94 285 6.1 10.4 0.00 0.00 0.00 7 1006.9
20260508005411 95 266 5.2 11.3 0.00 0.00 0.00 7 1006.8
20260508004511 95 270 3.5 7.8 0.00 0.00 0.00 7 1006.7
20260508003612 95 231 2.6 7.8 0.00 0.00 0.00 7 1006.8
20260508001812 95 225 3.5 6.1 0.00 0.00 0.00 7 1006.7
20260508000911 96 265 3.5 10.4 0.00 0.00 0.00 6 1006.8
20260508000011 96 244 2.6 8.7 0.00 0.00 0.00 7 1006.8
20260507235111 95 192 2.6 6.1 0.00 0.00 0.00 6 1006.8
20260507234212 95 23 3.5 7.8 0.00 0.00 0.00 7 1006.9
20260507233311 96 291 2.6 8.7 0.00 0.00 0.00 6 1007.0
20260507232411 96 338 2.6 7.0 0.00 0.00 0.00 6 1007.0
20260507231511 96 307 3.5 7.8 0.00 0.00 0.00 6 1007.1
20260507230611 96 98 1.7 9.6 0.00 0.00 0.00 6 1007.1
20260507223012 96 267 2.6 7.8 0.00 0.00 0.00 6 1007.6
20260507222111 96 317 5.2 9.6 0.00 0.00 0.00 6 1007.8
20260507221211 98 301 5.2 10.4 0.00 0.00 0.00 6 1007.8
20260507220311 98 295 5.2 9.6 0.00 0.00 0.00 6 1008.0
20260507215411 96 272 2.6 8.7 0.00 0.00 0.00 6 1008.0
20260507213611 96 190 3.5 9.6 0.00 0.00 0.00 7 1008.3
20260507212711 96 190 2.6 8.7 0.00 0.00 0.00 7 1008.4
20260507211810 96 219 2.6 7.8 0.00 0.00 0.00 8 1008.6
20260507210911 97 182 3.5 7.0 0.00 0.00 0.00 8 1008.8
20260507210011 97 237 3.5 11.3 0.00 0.00 0.00 7 1008.8
20260507204210 97 273 2.6 8.7 0.00 0.00 0.00 8 1009.1
20260507203311 96 31 2.6 4.3 0.00 0.00 0.00 8 1009.2
20260507202411 94 299 3.5 7.8 0.00 0.00 0.00 8 1009.4
20260507201511 95 186 3.5 7.8 0.00 0.00 0.00 8 1009.5
20260507195710 95 213 2.6 7.0 0.00 0.00 0.00 9 1009.8
20260507194811 94 188 2.6 6.1 0.00 0.00 0.00 9 1009.9
20260507193912 94 184 2.6 8.7 0.00 0.00 0.00 10 1010.2
20260507193011 94 213 2.6 7.0 0.00 0.00 0.00 10 1010.3
20260507192111 94 154 1.7 7.0 0.00 0.00 0.00 10 1010.4
20260507191211 91 166 1.7 4.3 0.00 0.00 0.00 10 1010.6
20260507190310 91 161 2.6 3.5 0.00 0.00 0.00 10 1010.8
20260507184510 91 141 2.6 5.2 0.00 0.00 0.00 10 1010.9
20260507183610 90 117 3.5 7.0 0.00 0.00 0.00 11 1011.1
20260507182710 91 172 2.6 6.1 0.00 0.00 0.00 11 1011.2
20260507181810 90 249 2.6 7.8 0.00 0.00 0.00 12 1011.3
20260507180910 90 241 2.6 7.8 0.00 0.00 0.00 12 1011.4
20260507180011 89 196 3.5 11.3 0.00 0.00 0.00 13 1011.5
20260507175110 88 127 2.6 11.3 0.00 0.00 0.00 13 1011.5
20260507174210 88 160 2.6 6.1 0.00 0.00 0.00 15 1011.7
20260507173310 88 175 2.6 7.0 0.00 0.00 0.00 15 1011.9
20260507171511 86 151 3.5 7.8 0.00 0.00 0.00 15 1011.9
20260507170610 86 156 3.5 9.6 0.00 0.00 0.00 17 1012.0
20260507165710 84 146 1.7 7.8 0.00 0.00 0.00 18 1012.0
20260507164810 84 94 2.6 3.5 0.00 0.00 0.00 19 1012.1
20260507163910 84 116 2.6 6.1 0.00 0.00 0.00 19 1012.2
20260507163010 83 154 2.6 5.2 0.00 0.00 0.00 22 1012.1
20260507162110 81 150 1.7 5.2 0.00 0.00 0.00 23 1012.2
20260507161210 82 119 1.7 6.1 0.00 0.00 0.00 24 1012.3
20260507160310 82 129 2.6 4.3 0.00 0.00 0.00 24 1012.4
20260507155410 81 143 1.7 5.2 0.00 0.00 0.00 25 1012.5
20260507154510 81 99 2.6 6.1 0.00 0.00 0.00 24 1012.5
20260507153610 81 84 3.5 6.1 0.00 0.00 0.00 21 1012.5
20260507152710 80 91 4.3 7.0 0.00 0.00 0.00 22 1012.5
20260507151810 79 95 4.3 8.7 0.00 0.00 0.00 22 1012.5
20260507150910 79 87 4.3 8.7 0.00 0.00 0.00 22 1012.5
20260507150010 78 85 3.5 7.8 0.00 0.00 0.00 22 1012.4
20260507145110 78 66 3.5 8.7 0.00 0.00 0.00 23 1012.4
20260507144210 77 59 2.6 7.8 0.00 0.00 0.00 24 1012.4
20260507143310 76 38 1.7 4.3 0.00 0.00 0.00 26 1012.5
20260507142410 75 59 1.7 3.5 0.00 0.00 0.00 27 1012.5
20260507141510 73 60 1.7 3.5 0.00 0.00 0.00 29 1012.4
20260507135710 71 31 4.3 7.0 0.00 0.00 0.00 30 1012.2
20260507134810 70 25 5.2 10.4 0.00 0.00 0.00 30 1012.2
20260507133910 70 20 3.5 9.6 0.00 0.00 0.00 30 1012.2
20260507132110 68 25 2.6 8.7 0.00 0.00 0.00 32 1012.1
20260507131211 67 350 1.7 5.2 0.00 0.00 0.00 34 1012.1
20260507130310 66 26 1.7 3.5 0.00 0.00 0.00 34 1011.9
20260507125410 66 29 1.7 2.6 0.00 0.00 0.00 35 1012.0
20260507123610 65 24 2.6 4.3 0.00 0.00 0.00 34 1011.9
20260507121810 64 55 0.9 2.6 0.00 0.00 0.00 36 1012.0
20260507120910 64 55 0.9 1.7 0.00 0.00 0.00 37 1012.0
20260507120010 64 56 0.0 2.6 0.00 0.00 0.00 36 1011.9
20260507115110 64 57 0.9 2.6 0.00 0.00 0.00 36 1011.9
20260507114210 64 57 0.0 1.7 0.00 0.00 0.00 36 1011.7
20260507113310 64 57 0.0 1.7 0.00 0.00 0.00 36 1011.8
20260507111510 66 56 1.7 4.3 0.00 0.00 0.00 33 1011.7
20260507110610 67 46 2.6 4.3 0.00 0.00 0.00 32 1011.8
20260507105710 67 25 2.6 5.2 0.00 0.00 0.00 33 1011.9
20260507104810 66 27 1.7 3.5 0.00 0.00 0.00 33 1012.0
20260507103910 66 29 0.9 2.6 0.00 0.00 0.00 34 1012.1
20260507103010 66 29 0.0 2.6 0.00 0.00 0.00 34 1012.1
20260507102110 67 0 0.0 0.0 0.00 0.00 0.00 33 1012.2
20260507101210 66 30 0.9 2.6 0.00 0.00 0.00 34 1012.3
20260507100310 68 30 1.7 3.5 0.00 0.00 0.00 33 1012.4
20260507095409 68 31 1.7 3.5 0.00 0.00 0.00 33 1012.4
20260507094510 67 37 1.7 3.5 0.00 0.00 0.00 33 1012.5
20260507093610 67 50 0.9 3.5 0.00 0.00 0.00 34 1012.5
20260507092710 67 50 1.7 2.6 0.00 0.00 0.00 34 1012.5
20260507090910 68 51 1.7 2.6 0.00 0.00 0.00 32 1012.5
20260507090010 68 51 1.7 2.6 0.00 0.00 0.00 32 1012.5
20260507085110 68 52 1.7 3.5 0.00 0.00 0.00 32 1012.6
20260507083310 68 55 0.0 2.6 0.00 0.00 0.00 32 1012.7